Content
SEND FEEDBACK

Daily
Averages
Monthly
Summary
Republic of Congo

BRAZZAVILLE, REPUBLIC OF CONGO


Home > Africa > Republic of Congo
Elevation: 1036 feet     Latitude: 04 15S     Longitude: 015 15E

WEATHER
 
SELECT A DAY
Number of Records: 152,275;   Date Range: 7/1/96 - 9/15/14
 
SHARE

PRINT THIS DATA

[ ← Previous Day ]
WEATHER ALMANAC - JANUARY 23, 2013
[ Next Day → ]
[ °C ]   °F
Weather ElementAverageHighLow
Temperature78.4 °F91.4 °F (2:00 pm)71 °F (7:00 pm)
Dewpoint72 °F75.2 °F (10:00 am)69.8 °F (6:37 pm)
Humidity81.4 %100 % (11:00 pm)47 % (1:00 pm)
Barometer29.88 in29.98 in (9:00 am)29.78 in (1:00 pm)
Wind Speed6.7 mph40.3 mph (5:46 pm)
Weather ElementAverage
Visibility4.8 mi
Wind DirectionS (174.5 °)

Weather ElementTotal
Precipitation---
Cooling Degree Days16.2 (Base 65)
Growing Degree Days31.2 (Base 50)
Averaged from 35 records on January 23, 2013
WEATHER CONDITIONS BREAKOUT
WIND DIRECTION BREAKOUT
WEATHER BY HOUR - JANUARY 23, 2013
[ °C ]   °F
Local TimeTemperatureDewpointHumidityBarometerVisibilityWind DirectionWind SpeedGust SpeedPrecipitationEventsConditions
1:00 AM78.0 °F71.0 °F75 %29.82 in6.0 miCalmScattered Clouds
1:00 AM77.0 °F71.6 °F83 %29.89 in5.6 miCalm
2:00 AM77.0 °F71.6 °F83 %29.89 in5.6 miNW (320°)2.3 mphScattered Clouds
3:00 AM77.0 °F71.6 °F83 %29.89 in5.6 miCalmScattered Clouds
4:00 AM78.0 °F72.0 °F75 %29.82 in6.0 miCalmScattered Clouds
4:00 AM77.0 °F71.6 °F83 %29.89 in5.6 miCalmMostly Cloudy
5:00 AM77.0 °F73.4 °F89 %29.92 in5.6 miCalmScattered Clouds
6:00 AM75.2 °F73.4 °F94 %29.92 in5.6 miSW (230°)3.5 mphScattered Clouds
7:00 AM75.2 °F73.4 °F94 %29.92 in5.6 miSW (230°)2.3 mphScattered Clouds
7:00 AM76.0 °F72.0 °F84 %29.84 in6.0 miWSW (240°)2.3 mphMostly Cloudy
8:00 AM77.0 °F73.4 °F89 %29.95 in5.6 miVariable2.3 mphScattered Clouds
9:00 AM78.8 °F73.4 °F83 %29.98 in5.6 miVariable2.3 mphMostly Cloudy
10:00 AM82.0 °F74.0 °F70 %29.89 in6.0 miSW (220°)4.6 mphPartly Cloudy
10:00 AM84.2 °F75.2 °F74 %29.95 in5.6 miWest (270°)5.8 mphMostly Cloudy
11:00 AM84.2 °F73.4 °F70 %29.92 in5.6 miSW (220°)4.6 mphMostly Cloudy
1:00 PM91.0 °F73.0 °F47 %29.78 in6.0 miSW (220°)4.6 mphPartly Cloudy
1:00 PM89.6 °F73.4 °F59 %29.86 in5.6 miSW (220°)8.1 mphMostly Cloudy
2:00 PM91.4 °F73.4 °F55 %29.83 in6.2 miWSW (250°)6.9 mphPartly Cloudy
3:00 PM89.6 °F73.4 °F59 %29.80 in6.2 miWSW (250°)4.6 mphPartly Cloudy
4:00 PM91.4 °F73.4 °F55 %29.80 in6.2 miWest (270°)4.6 mphPartly Cloudy
5:00 PM91.4 °F73.4 °F55 %29.80 in5.0 miWest (280°)6.9 mphThunderstormThunderstorm
5:12 PM89.6 °F75.2 °F62 %29.80 in2.5 miNW (310°)5.8 mphRain-ThunderstormLight Thunderstorms and Rain
5:46 PM73.4 °F71.6 °F94 %29.86 in1.2 miNE (50°)40.3 mphRain-ThunderstormThunderstorms and Rain
6:00 PM73.4 °F71.6 °F94 %29.86 in1.2 miNE (50°)32.2 mphRain-ThunderstormThunderstorms and Rain
6:22 PM73.4 °F71.6 °F94 %29.89 in1.9 miNorth (10°)17.3 mphRain-ThunderstormLight Thunderstorms and Rain
6:37 PM71.6 °F69.8 °F94 %29.89 in1.9 miNorth (10°)17.3 mphRain-ThunderstormThunderstorms and Rain
7:00 PM71.6 °F69.8 °F94 %29.92 in1.9 miNorth (360°)15.0 mphRain-ThunderstormThunderstorms and Rain
7:00 PM71.0 °F70.0 °F95 %29.85 in4.0 miWest (260°)9.2 mphRain-ThunderstormThunderstorms and Rain
7:28 PM71.6 °F69.8 °F94 %29.92 inNNE (20°)6.9 mphRain-ThunderstormLight Thunderstorms and Rain
7:56 PM71.6 °F69.8 °F94 %29.95 in3.7 miNW (310°)2.3 mphRain-ThunderstormLight Thunderstorms and Rain
8:00 PM71.6 °F69.8 °F94 %29.95 in3.7 miNW (310°)2.3 mphRain-ThunderstormLight Thunderstorms and Rain
9:00 PM71.6 °F69.8 °F94 %29.95 in3.7 miWSW (240°)5.8 mphRain-ThunderstormLight Thunderstorms and Rain
9:51 PM71.6 °F69.8 °F94 %29.92 in5.0 miCalmRainLight Rain
10:00 PM71.6 °F69.8 °F94 %29.92 in5.0 miWNW (300°)6.9 mphRainLight Rain
11:00 PM71.6 °F71.6 °F100 %29.92 in5.0 miNW (310°)8.1 mph
Hourly data recorded from FCBB, located miles away from Brazzaville, Republic of Congo







STORIES FROM OUR PARTNERS